Weather History for Somerset, KY

Change the Weather History Date:

Friday, January 17, 2014

  Actual Average Record
Temperature  
Mean Temperature 29 °F -  
Max Temperature 37 °F 43 °F 62 °F (2012)
Min Temperature 21 °F 25 °F 6 °F (1997)
Degree Days  
Heating Degree Days 36    
Moisture  
Dew Point 23 °F    
Average Humidity 82    
Maximum Humidity 100    
Minimum Humidity 63    
Precipitation  
Precipitation 0.02 in - - ()
Sea Level Pressure  
Sea Level Pressure 29.95 in    
Wind  
Wind Speed 6 mph (West)    
Max Wind Speed 17 mph    
Max Gust Speed 26 mph    
Visibility 9 miles    
Events Rain , Snow    
Averages and records for this station are not official NWS values.
T = Trace of Precipitation, MM = Missing Value Source: NWS Daily Summary

Daily Weather History Graph

Daily Weather History Graph

Search for Another Location

Airport:

Trip Planner

Search our weather history database for the weather conditions in past years. The results will help you decide how hot, cold, wet, or windy it might be!

Date:

Astronomy

Jan. 17, 2014 Rise Set
Actual Time 7:50 AM EST 5:47 PM EST
Civil Twilight 7:21 AM EST 6:15 PM EST
Nautical Twilight 6:50 AM EST 6:47 PM EST
Astronomical Twilight 6:18 AM EST 7:18 PM EST
Moon 7:29 PM EST (1/17) 8:20 AM EST (1/17)
Length of Visible Light 10h 53m
Length of Day
9h 57m
Full, 98% of the Moon is Illuminated
Jan 17
Full
Jan 24
Last Quarter
Jan 30
New
Feb 6
First Quarter
Feb 14
Full

Hourly Weather History & Observations

Time (EST) Temp. Windchill Dew Point Humidity Pressure Visibility Wind Dir Wind Speed Gust Speed Precip Events Conditions
12:15 AM 37.4 °F - 28.4 °F 70% 29.88 in 10.0 mi Calm Calm - N/A   Light Drizzle
12:35 AM 35.6 °F 32.8 °F 28.4 °F 75% 29.88 in 10.0 mi NNW 3.5 mph - N/A   Overcast
12:55 AM 35.6 °F 30.7 °F 30.2 °F 81% 29.88 in 10.0 mi NW 5.8 mph - N/A   Overcast
1:15 AM 33.8 °F 29.6 °F 30.2 °F 87% 29.88 in 10.0 mi NW 4.6 mph - N/A Rain Light Rain
1:35 AM 33.8 °F 30.8 °F 32.0 °F 93% 29.88 in 10.0 mi WSW 3.5 mph - N/A Rain Rain
1:55 AM 33.8 °F 30.8 °F 32.0 °F 93% 29.88 in 7.0 mi WSW 3.5 mph - N/A Rain Light Rain
2:15 AM 33.8 °F 30.8 °F 32.0 °F 93% 29.88 in 7.0 mi SSW 3.5 mph - N/A Rain Light Rain
2:35 AM 32.0 °F 27.5 °F 32.0 °F 100% 29.88 in 7.0 mi South 4.6 mph - N/A Rain Light Rain
2:55 AM 32.0 °F 25.6 °F 32.0 °F 100% 29.86 in 10.0 mi SSE 6.9 mph - N/A   Mostly Cloudy
3:15 AM 32.0 °F 28.7 °F 32.0 °F 100% 29.86 in 10.0 mi South 3.5 mph - N/A   Clear
3:35 AM 32.0 °F 27.5 °F 32.0 °F 100% 29.86 in 10.0 mi South 4.6 mph - N/A   Clear
3:55 AM 32.0 °F - 32.0 °F 100% 29.86 in 10.0 mi Calm Calm - N/A   Clear
4:15 AM 32.0 °F 28.7 °F 32.0 °F 100% 29.85 in 10.0 mi South 3.5 mph - N/A   Clear
4:35 AM 32.0 °F 28.7 °F 32.0 °F 100% 29.84 in 10.0 mi South 3.5 mph - N/A   Clear
4:55 AM 32.0 °F 26.4 °F 32.0 °F 100% 29.83 in 10.0 mi SSE 5.8 mph - N/A   Clear
5:15 AM 32.0 °F 28.7 °F 32.0 °F 100% 29.83 in 10.0 mi South 3.5 mph - N/A   Clear
5:35 AM 32.0 °F 25.6 °F 32.0 °F 100% 29.83 in 10.0 mi South 6.9 mph - N/A   Clear
5:55 AM 32.0 °F 26.4 °F 32.0 °F 100% 29.83 in 10.0 mi South 5.8 mph - N/A   Clear
6:15 AM 32.0 °F 26.4 °F 32.0 °F 100% 29.83 in 10.0 mi South 5.8 mph - N/A   Clear
6:35 AM 32.0 °F 27.5 °F 32.0 °F 100% 29.83 in 10.0 mi South 4.6 mph - N/A   Scattered Clouds
6:55 AM 32.0 °F 26.4 °F 32.0 °F 100% 29.83 in 10.0 mi South 5.8 mph - N/A   Mostly Cloudy
7:15 AM 32.0 °F 26.4 °F 32.0 °F 100% 29.84 in 10.0 mi South 5.8 mph - N/A   Mostly Cloudy
7:35 AM 32.0 °F 26.4 °F 32.0 °F 100% 29.84 in 10.0 mi South 5.8 mph - N/A   Mostly Cloudy
7:55 AM 32.0 °F 27.5 °F 32.0 °F 100% 29.84 in 10.0 mi South 4.6 mph - N/A   Scattered Clouds
8:15 AM 32.0 °F 27.5 °F 32.0 °F 100% 29.84 in 10.0 mi South 4.6 mph - N/A   Mostly Cloudy
8:35 AM 32.0 °F 27.5 °F 32.0 °F 100% 29.85 in 10.0 mi SSW 4.6 mph - N/A   Overcast
8:55 AM 33.8 °F 26.4 °F 32.0 °F 93% 29.87 in 4.0 mi WSW 9.2 mph - N/A Snow Light Snow
9:15 AM 33.8 °F 25.8 °F 32.0 °F 93% 29.88 in 7.0 mi WSW 10.4 mph - N/A Snow Light Snow
9:35 AM 32.0 °F 25.6 °F 32.0 °F 100% 29.88 in 2.5 mi WSW 6.9 mph - 0.01 in Snow Light Snow
9:55 AM 32.0 °F 26.4 °F 32.0 °F 100% 29.89 in 3.0 mi SW 5.8 mph - 0.01 in Snow Light Snow
10:15 AM 32.0 °F 26.4 °F 32.0 °F 100% 29.89 in 7.0 mi SW 5.8 mph - N/A Rain Light Rain
10:35 AM 32.0 °F 24.8 °F 32.0 °F 100% 29.89 in 5.0 mi WSW 8.1 mph - N/A Snow Light Snow
10:55 AM 32.0 °F 23.6 °F 32.0 °F 100% 29.90 in 1.5 mi West 10.4 mph - 0.01 in Snow Light Snow
11:15 AM 32.0 °F 22.5 °F 30.2 °F 93% 29.91 in 1.5 mi West 12.7 mph 17.3 mph N/A Snow Light Snow
11:35 AM 32.0 °F 24.8 °F 30.2 °F 93% 29.91 in 2.5 mi West 8.1 mph - N/A Snow Light Snow
11:55 AM 32.0 °F 21.2 °F 30.2 °F 93% 29.91 in 10.0 mi WNW 16.1 mph 23.0 mph N/A Snow Light Snow
12:15 PM 30.2 °F 18.9 °F 24.8 °F 80% 29.92 in 10.0 mi NW 16.1 mph 20.7 mph N/A   Overcast
12:35 PM 30.2 °F 20.2 °F 23.0 °F 75% 29.93 in 10.0 mi West 12.7 mph 21.9 mph N/A Snow Light Snow
12:55 PM 28.4 °F 16.6 °F 23.0 °F 80% 29.93 in 10.0 mi West 16.1 mph 24.2 mph N/A Snow Light Snow
1:15 PM 28.4 °F 17.5 °F 21.2 °F 74% 29.93 in 5.0 mi WNW 13.8 mph 26.5 mph N/A Snow Light Snow
1:35 PM 26.6 °F 13.8 °F 21.2 °F 80% 29.95 in 2.5 mi WNW 17.3 mph 25.3 mph N/A Snow Light Snow
1:55 PM 28.4 °F 17.0 °F 19.4 °F 69% 29.95 in 10.0 mi WNW 15.0 mph 26.5 mph N/A   Overcast
2:15 PM 28.4 °F 16.6 °F 19.4 °F 69% 29.95 in 10.0 mi West 16.1 mph 23.0 mph N/A   Overcast
2:35 PM 30.2 °F 21.9 °F 19.4 °F 64% 29.96 in 10.0 mi WNW 9.2 mph - N/A   Overcast
2:55 PM 28.4 °F 18.0 °F 17.6 °F 64% 29.96 in 10.0 mi NW 12.7 mph 18.4 mph N/A   Overcast
3:15 PM 28.4 °F 18.5 °F 17.6 °F 64% 29.97 in 10.0 mi NW 11.5 mph - N/A   Overcast
3:35 PM 26.6 °F 16.8 °F 19.4 °F 74% 29.99 in 7.0 mi WNW 10.4 mph 16.1 mph N/A Snow Light Snow
3:55 PM 26.6 °F 15.7 °F 17.6 °F 69% 30.00 in 7.0 mi WNW 12.7 mph 19.6 mph N/A Snow Light Snow
4:15 PM 26.6 °F 17.5 °F 15.8 °F 64% 30.01 in 10.0 mi WNW 9.2 mph 19.6 mph N/A   Overcast
4:35 PM 24.8 °F 13.4 °F 14.0 °F 64% 30.03 in 10.0 mi WNW 12.7 mph 19.6 mph N/A   Overcast
4:55 PM 24.8 °F 14.0 °F 14.0 °F 64% 30.04 in 10.0 mi WNW 11.5 mph 19.6 mph N/A   Overcast
5:15 PM 23.0 °F 13.1 °F 14.0 °F 68% 30.05 in 10.0 mi WNW 9.2 mph - N/A   Overcast
5:35 PM 23.0 °F 10.6 °F 14.0 °F 68% 30.06 in 10.0 mi West 13.8 mph 19.6 mph N/A   Overcast
5:55 PM 23.0 °F 11.7 °F 14.0 °F 68% 30.07 in 10.0 mi West 11.5 mph 16.1 mph N/A   Overcast
6:15 PM 23.0 °F 12.4 °F 12.2 °F 63% 30.07 in 10.0 mi WNW 10.4 mph - N/A   Overcast
6:35 PM 23.0 °F 13.9 °F 12.2 °F 63% 30.08 in 10.0 mi WNW 8.1 mph - N/A   Overcast
6:55 PM 23.0 °F 13.1 °F 12.2 °F 63% 30.09 in 10.0 mi West 9.2 mph - N/A   Overcast
7:15 PM 23.0 °F 12.4 °F 12.2 °F 63% 30.10 in 10.0 mi WNW 10.4 mph - N/A   Overcast
7:35 PM 23.0 °F 14.7 °F 12.2 °F 63% 30.11 in 10.0 mi WNW 6.9 mph - N/A   Overcast
7:55 PM 21.2 °F 13.6 °F 12.2 °F 68% 30.11 in 10.0 mi WNW 5.8 mph - N/A   Overcast
8:15 PM 21.2 °F 14.9 °F 12.2 °F 68% 30.11 in 10.0 mi NW 4.6 mph - N/A   Overcast
8:35 PM 21.2 °F 16.4 °F 12.2 °F 68% 30.11 in 10.0 mi West 3.5 mph - N/A   Overcast
8:55 PM 21.2 °F 10.1 °F 12.2 °F 68% 30.12 in 10.0 mi West 10.4 mph - N/A   Overcast
9:15 PM 21.2 °F 10.9 °F 12.2 °F 68% 30.12 in 10.0 mi West 9.2 mph - N/A   Overcast
9:35 PM 21.2 °F 13.6 °F 10.4 °F 63% 30.11 in 10.0 mi West 5.8 mph - N/A   Overcast
9:55 PM 21.2 °F 13.6 °F 10.4 °F 63% 30.11 in 10.0 mi West 5.8 mph - N/A   Overcast
10:15 PM 21.2 °F 14.9 °F 10.4 °F 63% 30.11 in 10.0 mi West 4.6 mph - N/A   Overcast
10:35 PM 21.2 °F 13.6 °F 10.4 °F 63% 30.12 in 10.0 mi WNW 5.8 mph - N/A   Overcast
10:55 PM 21.2 °F 13.6 °F 10.4 °F 63% 30.12 in 10.0 mi WNW 5.8 mph - N/A   Overcast
11:15 PM 21.2 °F 13.6 °F 10.4 °F 63% 30.12 in 10.0 mi West 5.8 mph - N/A   Overcast
11:35 PM 21.2 °F 13.6 °F 10.4 °F 63% 30.11 in 10.0 mi West 5.8 mph - N/A   Overcast
11:55 PM 21.2 °F 14.9 °F 10.4 °F 63% 30.10 in 10.0 mi WNW 4.6 mph - N/A   Overcast